Tracking 19415 objects as of 16-Dec-2018
HD Live streaming from Space Station
objects crossing your sky now

EAGLESAT-1

Track EAGLESAT-1 now!
10-day predictions
EAGLESAT-1 is classified as:


NORAD ID: 43018
Int'l Code: 2017-073F
Perigee: 459.2 km
Apogee: 822.5 km
Inclination: 97.7 °
Period: 97.4 minutes
Semi major axis: 7011 km
RCS: Unknown
Launch date: November 18, 2017
Source: United States (US)
Launch site: AIR FORCE WESTERN TEST RANGE (AFWTR)

Uplink (MHz):
Downlink (MHz): 437.645
Beacon (MHz):
Mode: 1200bps AFSK
Call sign:
Status: Inactive

aabbcc
Your satellite tracking list
Your tracking list is empty




NASA's NSSDC Master Catalog

Two Line Element Set (TLE):
1 43018U 17073F   18349.78786374 +.00001196 +00000-0 +97815-4 0  9990
2 43018 097.7168 273.5119 0259049 040.3154 321.6949 14.78617967057800
Source of the keplerian elements: AFSPC